A/2019 C1

Japanese version
Home page
Updated on May 19, 2019

---------------------------------------------------------------------

* Profile

Discovery Date February 5, 2019
Magnitude 17.75 mag
Discoverer ATLAS-MLO (Mauna Loa)

* Pictures

* Orbital Elements

Epoch 2020 Apr. 21.0 TT = JDT 2458960.5
T 2020 May 6.13292 TT                                   MPCW
q   6.5798757            (2000.0)            P               Q
z  +0.0011153      Peri.  319.23478     -0.92247387     -0.22316584
 +/-0.0000303      Node   212.39310     +0.18961743     -0.97269631
e   0.9926615      Incl.   36.01731     -0.33628440     +0.06370941
From 130 observations 2019 Jan. 14-May 1, mean residual 0".4.

* Magnitudes Graph

        H = 10.0  G = 0.15

---------------------------------------------------------------------

The orbital elements are published on M.P.E.C. 2019-J142.
The magnitudes graphs are made with Comet for Windows.

---------------------------------------------------------------------

Copyright(C) Seiichi Yoshida (comet@aerith.net). All rights reserved.